Location: Muenchen
(48.1800°N, 11.5800°E)
Time: 10:18:54
(UTC+02:00)

Sich 1 Rocket - Visible Passes

Search period start: 23 September 2014 00:00
Search period end: 03 October 2014 00:00
Orbit: 619 x 653 km, 82.5° (Epoch: 22 September)

Date Brightness Start Highest point End Pass type
(mag) Time Alt. Az. Time Alt. Az. Time Alt. Az.
23 Sep 5.5 21:17:25 10° NNE 21:19:22 18° NE 21:19:22 18° NE visible
23 Sep 5.8 22:54:57 10° NNW 22:56:53 24° NNW 22:56:53 24° NNW visible
24 Sep 5.1 21:39:35 10° N 21:42:01 26° NNE 21:42:01 26° NNE visible
24 Sep 6.3 23:18:09 10° NNW 23:19:31 17° NW 23:19:31 17° NW visible
25 Sep 5.0 22:02:07 10° N 22:04:40 33° N 22:04:40 33° N visible
25 Sep 6.8 23:42:04 10° NW 23:42:11 10° NW 23:42:11 10° NW visible
26 Sep 5.4 20:47:39 10° NNE 20:49:50 17° NE 20:49:50 17° NE visible
26 Sep 5.4 22:24:54 10° NNW 22:27:21 30° NNW 22:27:21 30° NNW visible
27 Sep 4.9 21:09:41 10° N 21:12:31 27° NE 21:12:31 27° NE visible
27 Sep 6.0 22:48:00 10° NNW 22:50:02 22° NW 22:50:02 22° NW visible
28 Sep 4.5 21:32:08 10° N 21:35:14 40° NNE 21:35:14 40° NNE visible
28 Sep 6.5 23:11:40 10° NW 23:12:45 13° WNW 23:12:45 13° WNW visible
29 Sep 5.4 20:17:56 10° NNE 20:20:27 15° ENE 20:20:27 15° ENE visible
29 Sep 4.7 21:54:52 10° NNW 21:57:58 42° NNW 21:57:58 42° NNW visible
30 Sep 4.7 20:39:49 10° NNE 20:43:13 27° ENE 20:43:13 27° ENE visible
30 Sep 5.5 22:17:53 10° NNW 22:20:44 29° WNW 22:20:44 29° WNW visible
01 Oct 4.0 21:02:11 10° N 21:06:00 48° NE 21:06:00 48° NE visible
01 Oct 6.2 22:41:22 10° NW 22:43:31 17° WNW 22:43:31 17° WNW visible
02 Oct 5.4 19:48:20 10° NNE 19:50:31 13° ENE 19:51:18 13° ENE visible
02 Oct 3.9 21:24:51 10° NNW 21:28:49 66° NNW 21:28:49 66° NNW visible
